TimeEDT,TemperatureF,Dew PointF,Humidity,Sea Level PressureIn,VisibilityMPH,Wind Direction,Wind SpeedMPH,Gust SpeedMPH,PrecipitationIn,Events,Conditions,WindDirDegrees,DateUTC
12:30 AM,66.2,64.4,94,29.88,5.0,SSW,8.1,-,0.03,Rain,Light Rain,210,2013-04-20 04:30:00
12:54 AM,66.9,64.9,93,29.88,8.0,SW,8.1,16.1,0.06,Rain,Light Rain,220,2013-04-20 04:54:00
1:01 AM,66.2,64.4,94,29.90,2.5,WSW,12.7,-,0.04,Rain,Rain,250,2013-04-20 05:01:00
1:05 AM,66.2,64.4,94,29.89,2.0,West,13.8,20.7,0.07,Rain,Heavy Rain,280,2013-04-20 05:05:00
1:15 AM,62.6,60.8,94,29.91,5.0,West,23.0,31.1,0.09,Rain,Light Rain,280,2013-04-20 05:15:00
1:25 AM,57.2,55.4,94,29.91,5.0,West,13.8,-,0.10,Rain,Light Rain,280,2013-04-20 05:25:00
1:45 AM,59.0,57.2,94,29.90,10.0,West,9.2,-,0.11,Rain,Light Rain,260,2013-04-20 05:45:00
1:54 AM,59.0,55.9,90,29.91,7.0,WSW,9.2,-,0.12,Rain,Light Rain,250,2013-04-20 05:54:00
2:54 AM,54.0,52.0,93,29.92,9.0,West,10.4,-,0.08,Rain,Light Rain,280,2013-04-20 06:54:00
3:54 AM,54.0,52.0,93,29.93,10.0,WSW,6.9,-,0.01,,Mostly Cloudy,250,2013-04-20 07:54:00
4:20 AM,53.6,51.8,94,29.93,10.0,West,6.9,-,N/A,,Overcast,270,2013-04-20 08:20:00
4:34 AM,53.6,53.6,100,29.93,10.0,West,5.8,-,N/A,,Overcast,270,2013-04-20 08:34:00
4:54 AM,54.0,53.1,97,29.95,10.0,West,5.8,-,N/A,,Mostly Cloudy,260,2013-04-20 08:54:00
5:54 AM,55.0,53.1,93,29.97,10.0,NW,9.2,-,N/A,,Mostly Cloudy,310,2013-04-20 09:54:00
6:54 AM,53.1,45.0,74,30.03,10.0,NNW,8.1,19.6,N/A,,Mostly Cloudy,340,2013-04-20 10:54:00
7:54 AM,52.0,43.0,71,30.06,10.0,NNW,8.1,-,N/A,,Partly Cloudy,340,2013-04-20 11:54:00
8:54 AM,52.0,43.0,71,30.09,10.0,North,6.9,-,N/A,,Clear,350,2013-04-20 12:54:00
9:54 AM,52.0,41.0,66,30.12,10.0,North,9.2,-,N/A,,Clear,350,2013-04-20 13:54:00
10:54 AM,55.0,37.0,51,30.13,10.0,NNE,15.0,20.7,N/A,,Clear,20,2013-04-20 14:54:00
11:54 AM,55.9,37.9,51,30.15,10.0,North,10.4,-,N/A,,Clear,350,2013-04-20 15:54:00
12:54 PM,57.9,37.9,47,30.15,10.0,NNE,6.9,-,N/A,,Clear,30,2013-04-20 16:54:00
1:54 PM,57.9,37.9,47,30.14,10.0,North,9.2,-,N/A,,Clear,360,2013-04-20 17:54:00
2:54 PM,59.0,36.0,42,30.14,10.0,Calm,Calm,-,N/A,,Clear,0,2013-04-20 18:54:00
3:54 PM,60.1,39.0,46,30.12,10.0,Calm,Calm,-,N/A,,Clear,0,2013-04-20 19:54:00
4:54 PM,59.0,39.0,48,30.13,10.0,NE,3.5,-,N/A,,Clear,50,2013-04-20 20:54:00
5:54 PM,59.0,41.0,51,30.13,10.0,ENE,3.5,-,N/A,,Clear,70,2013-04-20 21:54:00
6:54 PM,59.0,42.1,53,30.16,10.0,SE,5.8,-,N/A,,Clear,130,2013-04-20 22:54:00
7:54 PM,54.0,45.0,72,30.18,10.0,SE,3.5,-,N/A,,Clear,130,2013-04-20 23:54:00
8:54 PM,48.0,46.9,96,30.22,10.0,Calm,Calm,-,N/A,,Clear,0,2013-04-21 00:54:00
9:54 PM,46.0,45.0,96,30.25,10.0,Calm,Calm,-,N/A,,Clear,0,2013-04-21 01:54:00
10:54 PM,44.1,43.0,96,30.26,7.0,Calm,Calm,-,N/A,,Clear,0,2013-04-21 02:54:00
11:54 PM,42.1,41.0,96,30.27,6.0,Calm,Calm,-,N/A,,Clear,0,2013-04-21 03:54:00